星链-30766 (STARLINK-30766 )

导读 | 豆包AI

STARLINK-30766是美国太空探索技术公司星链计划的卫星之一,于2023年10月22日发射,星链计划旨在构建全球卫星互联网星座。该卫星属于低轨卫星,为全球提供高速互联网服务,尤其覆盖偏远地区,推动全球网络连接普及,是星链星座部署中商业航天发展的典型产物。

基本信息
目录编号:
58125
目录名称:
STARLINK-30766
国际标识:
2023-162H
轨道中心:
EARTH
卫星名称:
星链-30766
卫星全名:
星链-30766 (STARLINK-30766 )
卫星状态:
在轨 (已飞行921 天)
发射日期:
2023-10-22 UTC
国别 :
美国 (US)
星等 :
--
轨道信息
数据来源 国际轨道数据
星历时间: 2026-04-30T13:01:10+0800
15小时前
查看轨道信息
半长轴: 6861.192km
偏心率: 0.0001769
轨道倾角: 43.004°
近地点辐角 253.147°
升交点赤经 198.361°
平近点角 106.919°
近地点: 481.841km
远地点: 484.269km
周期: 94.267分钟
每日圈数: 15.275783
详细信息
固有亮度:
5
最大亮度:
0.3
卫星平台:
Starlink v2.0 mini
覆盖范围:
全球
运营商:
太空探索技术公司
运营商所在国:
美国
制造商(研发单位):
太空探索技术公司
制造商所在国:
美国
使用方式:
暂无
卫星简介
星链(Starlink)计划是由太空探索技术公司(SpaceX)提出的一个巨型低轨卫星互联网星座项目,计划在2019年至2024年间在太空搭建由约1.2万颗卫星组成的“星链”网络,其中1584颗将部署在地球上空550千米处的近地轨道,并从2020年开始工作。该卫星仍在工作。
2D轨道图
3D轨道图
轨道高度分析图
轨道倾角分析图
轨道综合分析图
查看轨道综合分析图